User: anonymous   Login
Location: Vancouver
(49.2500°N, 123.1330°W)
Time: 21:54:24
(UTC-08:00)
Language:

Cosmos 676 Rocket - Orbit

View from above orbital plane
View from above orbital plane
View from above satellite
View from above satellite

Ground track
Ground track

The orbit data is extracted from the following two-line orbital elements,

1 07434U 74071B   17016.83633168 -.00000001  00000-0  84852-5 0  9994
2 07434  74.0474 131.9730 0019552  79.1306 281.2046 14.36611903214978
Epoch (UTC): 16 January 2017 20:04:19
Eccentricity: 0.0019552
inclination: 74.0474°
perigee height: 756 km
apogee height: 783 km
right ascension of ascending node: 131.9730°
argument of perigee: 79.1306°
revolutions per day: 14.36611903
mean anomaly at epoch: 281.2046°
orbit number at epoch: 21497

The dashed part of the orbit path shows where the satellite is in the earth's shadow,  

DLR